This is the latest recevied weather packets stored in our database for station/object SR2CPA-13. If no packets are shown the sender has not sent any weather packets the latest 10 day(s).
| Time | Temp. | Humidity | Pressure | Rain* | Wind** | Luminosity | Snow |
|---|---|---|---|---|---|---|---|
| 1777657810 | 19.44° C | 41% | 0 hPa | 0 mm | - | - | - |
| 1777657210 | 20.56° C | 39% | 0 hPa | 0 mm | - | - | - |
| 1777656590 | 20.56° C | 38% | 0 hPa | 0 mm | - | - | - |
| 1777655990 | 21.11° C | 35% | 0 hPa | 0 mm | - | - | - |
| 1777655390 | 21.67° C | 35% | 0 hPa | 0 mm | - | - | - |
| 1777654770 | 22.22° C | 32% | 0 hPa | 0 mm | - | - | - |
| 1777654150 | 22.22° C | 32% | 0 hPa | 0 mm | - | - | - |
| 1777653550 | 22.78° C | 31% | 0 hPa | 0 mm | - | - | - |
| 1777652930 | 23.33° C | 31% | 0 hPa | 0 mm | - | - | - |
| 1777652330 | 23.89° C | 31% | 0 hPa | 0 mm | - | - | - |
| 1777651710 | 23.89° C | 31% | 0 hPa | 0 mm | - | - | - |
| 1777651110 | 23.89° C | 29% | 0 hPa | 0 mm | - | - | - |
| 1777650490 | 23.89° C | 30% | 0 hPa | 0 mm | - | - | - |
| 1777649890 | 23.89° C | 30% | 0 hPa | 0 mm | - | - | - |
| 1777649270 | 24.44° C | 31% | 0 hPa | 0 mm | - | - | - |
| 1777648670 | 24.44° C | 30% | 0 hPa | 0 mm | - | - | - |
| 1777648070 | 23.89° C | 31% | 0 hPa | 0 mm | - | - | - |
| 1777647470 | 24.44° C | 31% | 0 hPa | 0 mm | - | - | - |
| 1777646870 | 24.44° C | 34% | 0 hPa | 0 mm | - | - | - |
| 1777646270 | 23.89° C | 33% | 0 hPa | 0 mm | - | - | - |
| 1777645650 | 23.89° C | 34% | 0 hPa | 0 mm | - | - | - |
| 1777645050 | 23.33° C | 34% | 0 hPa | 0 mm | - | - | - |
| 1777644450 | 23.89° C | 33% | 0 hPa | 0 mm | - | - | - |
| 1777643830 | 23.89° C | 32% | 0 hPa | 0 mm | - | - | - |
| 1777643210 | 23.33° C | 34% | 0 hPa | 0 mm | - | - | - |
* Rain latest hour (hover to see other rain measurements)
** Current wind speed in m/s (hover to see current wind gust speed)